Location: Melbourne
(37.8170°S, 144.9670°E)
Time: 00:27:44
(UTC+10:00)

Explorer 11/Cluster Stage 4 - Visible Passes

Search period start: 24 April 2014 00:00
Search period end: 04 May 2014 00:00
Orbit: 468 x 1287 km, 28.8° (Epoch: 21 April)

Date Brightness Start Highest point End Pass type
(mag) Time Alt. Az. Time Alt. Az. Time Alt. Az.
24 Apr 8.3 18:45:13 10° NW 18:51:47 37° NNE 18:57:17 17° ENE visible
24 Apr 8.2 20:33:28 10° WNW 20:39:44 42° NNW 20:39:44 42° NNW visible
25 Apr 8.2 18:38:58 10° NW 18:45:27 38° NNE 18:51:25 16° ENE visible
25 Apr 8.1 20:27:17 10° WNW 20:33:51 43° NNW 20:33:51 43° NNW visible
26 Apr 8.1 18:32:45 10° WNW 18:39:08 40° N 18:45:32 14° ENE visible
26 Apr 8.1 20:21:08 10° WNW 20:27:58 42° N 20:27:58 42° N visible
27 Apr 8.1 18:26:35 10° WNW 18:32:49 40° N 18:39:39 12° ENE visible
27 Apr 8.1 20:15:00 10° WNW 20:21:53 40° N 20:22:05 40° N visible
28 Apr 8.1 18:20:27 10° WNW 18:26:30 40° N 18:33:43 10° ENE visible
28 Apr 8.2 20:08:54 10° WNW 20:15:32 37° N 20:16:14 37° N visible
29 Apr 8.1 18:14:20 10° WNW 18:20:12 40° N 18:27:15 10° ENE visible
29 Apr 8.3 20:02:51 10° WNW 20:09:11 34° NNW 20:10:24 32° N visible
30 Apr 8.1 18:08:15 10° WNW 18:13:54 39° N 18:20:45 10° ENE visible
30 Apr 8.5 19:56:50 10° WNW 20:02:49 31° NNW 20:04:38 28° N visible
01 May 8.1 18:02:11 10° WNW 18:07:37 37° N 18:14:12 10° ENE visible
01 May 8.7 19:50:52 10° WNW 19:56:27 27° NNW 19:58:55 23° NNE visible
02 May 8.2 17:56:09 10° WNW 18:01:20 34° N 18:07:36 10° ENE visible
02 May 8.8 19:45:00 10° WNW 19:50:06 23° NNW 19:53:18 18° NNE visible
03 May 8.3 17:50:09 10° WNW 17:55:03 31° N 18:00:58 10° NE visible
03 May 9.0 19:39:14 10° WNW 19:43:45 20° NNW 19:47:47 13° NNE visible
